,,PA_Meas_PMT16A,,PR_Meas_QMR101_102,,RH_Meas_QMH101,,SR_Meas_QMS101,,TA_Meas_QMH101,,GenWind,,GenWind,
time,status,PA,status,PR,status,RH,status,SR,status,TA,status,DirAvg,status,SpdAvg,
2013-11-18, 06:42:04,VALID,916.16,VALID,0,VALID,94.9268,VALID,94.6557,VALID,18.4174,VALID,137,VALID,0,
2013-11-18, 06:43:04,VALID,916.174,VALID,0,VALID,95.0411,VALID,112.169,VALID,18.4773,VALID,137,VALID,0,
2013-11-18, 06:44:04,VALID,916.171,VALID,0,VALID,95.0183,VALID,89.6059,VALID,18.5539,VALID,136,VALID,0,
2013-11-18, 06:45:04,VALID,916.191,VALID,0,VALID,94.6218,VALID,66.2912,VALID,18.5929,VALID,135,VALID,0,
2013-11-18, 06:47:04,VALID,916.22,VALID,0,VALID,93.9052,VALID,51.5718,VALID,18.6319,VALID,136,VALID,0,
2013-11-18, 06:48:04,VALID,916.193,VALID,0,VALID,93.8138,VALID,70.2665,VALID,18.6513,VALID,133,VALID,0,
2013-11-18, 06:49:04,VALID,916.228,VALID,0,VALID,93.8366,VALID,115.069,VALID,18.6903,VALID,138,VALID,0,
2013-11-18, 06:50:04,VALID,916.211,VALID,0,VALID,93.9434,VALID,138.169,VALID,18.7488,VALID,139,VALID,0,
2013-11-18, 06:51:04,VALID,916.235,VALID,0,VALID,93.8824,VALID,142.145,VALID,18.8463,VALID,138,VALID,0,
2013-11-18, 06:52:04,VALID,916.242,VALID,0,VALID,93.9738,VALID,146.55,VALID,18.9633,VALID,132,VALID,0,
2013-11-18, 06:53:04,VALID,916.299,VALID,0,VALID,94.0577,VALID,151.922,VALID,19.1193,VALID,135,VALID,0,
2013-11-18, 06:54:04,VALID,916.274,VALID,0,VALID,93.8366,VALID,158.905,VALID,19.2558,VALID,148,VALID,0,
2013-11-18, 06:55:04,VALID,916.291,VALID,0,VALID,93.3106,VALID,167.286,VALID,19.3713,VALID,147,VALID,0,
2013-11-18, 06:56:04,VALID,916.246,VALID,0,VALID,92.5406,VALID,176.203,VALID,19.4493,VALID,143,VALID,0,
2013-11-18, 06:57:04,VALID,916.276,VALID,0,VALID,91.4581,VALID,185.551,VALID,19.5078,VALID,138,VALID,0,
2013-11-18, 06:58:04,VALID,916.273,VALID,0,VALID,90.7263,VALID,195.006,VALID,19.6263,VALID,129,VALID,0,
2013-11-18, 06:59:04,VALID,916.312,VALID,0,VALID,90.9473,VALID,204.998,VALID,19.7433,VALID,124,VALID,0,
2013-11-18, 07:00:04,VALID,916.296,VALID,0,VALID,91.3361,VALID,213.378,VALID,19.8783,VALID,131,VALID,0,
2013-11-18, 07:01:04,VALID,916.302,VALID,0,VALID,90.9702,VALID,223.585,VALID,19.9953,VALID,144,VALID,0,
2013-11-18, 07:02:04,VALID,916.338,VALID,0,VALID,89.7276,VALID,178.997,VALID,20.0358,VALID,163,VALID,0,
2013-11-18, 07:03:04,VALID,916.358,VALID,0,VALID,88.9653,VALID,216.064,VALID,20.0538,VALID,170,VALID,0,
2013-11-18, 07:04:04,VALID,916.351,VALID,0,VALID,88.6527,VALID,191.03,VALID,20.0733,VALID,157,VALID,0,
2013-11-18, 07:05:04,VALID,916.385,VALID,0,VALID,89.3998,VALID,247.33,VALID,20.1318,VALID,151,VALID,0,
2013-11-18, 07:06:04,VALID,916.413,VALID,0,VALID,89.4227,VALID,252.379,VALID,20.2293,VALID,146,VALID,0,
2013-11-18, 07:07:04,VALID,916.422,VALID,0,VALID,88.5231,VALID,258.181,VALID,20.2879,VALID,161,VALID,0,
2013-11-18, 07:08:04,VALID,916.404,VALID,0,VALID,87.7531,VALID,263.768,VALID,20.3269,VALID,146,VALID,0,
2013-11-18, 07:09:04,VALID,916.441,VALID,0,VALID,87.2424,VALID,267.958,VALID,20.3659,VALID,123,VALID,0,
2013-11-18, 07:10:04,VALID,916.447,VALID,0,VALID,87.5549,VALID,264.95,VALID,20.4244,VALID,132,VALID,0,
2013-11-18, 07:11:04,VALID,916.458,VALID,0,VALID,86.9527,VALID,271.181,VALID,20.4244,VALID,141,VALID,0,
2013-11-18, 07:12:04,VALID,916.495,VALID,0,VALID,87.7608,VALID,281.066,VALID,20.504,VALID,160,VALID,0,
2013-11-18, 07:13:04,VALID,916.52,VALID,0,VALID,87.5092,VALID,211.229,VALID,20.6194,VALID,182,VALID,0,
2013-11-18, 07:14:04,VALID,916.505,VALID,0,VALID,85.3594,VALID,129.144,VALID,20.621,VALID,165,VALID,0,
2013-11-18, 07:15:04,VALID,916.518,VALID,0,VALID,83.9491,VALID,133.227,VALID,20.5414,VALID,138,VALID,0,
2013-11-18, 07:16:04,VALID,916.559,VALID,0,VALID,84.1396,VALID,134.946,VALID,20.4439,VALID,137,VALID,0,
2013-11-18, 07:17:04,VALID,916.569,VALID,0,VALID,84.9553,VALID,139.459,VALID,20.4049,VALID,144,VALID,0,
2013-11-18, 07:18:04,VALID,916.612,VALID,0,VALID,85.6872,VALID,154.071,VALID,20.4049,VALID,174,VALID,0,
2013-11-18, 07:19:04,VALID,916.608,VALID,0,VALID,86.0836,VALID,139.351,VALID,20.4439,VALID,155,VALID,0,
2013-11-18, 07:20:04,VALID,916.663,VALID,0,VALID,85.9616,VALID,140.64,VALID,20.4634,VALID,129,VALID,0,
2013-11-18, 07:21:04,VALID,916.656,VALID,0,VALID,84.7419,VALID,133.872,VALID,20.4634,VALID,140,VALID,0,
2013-11-18, 07:22:04,VALID,916.673,VALID,0,VALID,84.6962,VALID,133.549,VALID,20.4439,VALID,159,VALID,0,
2013-11-18, 07:23:04,VALID,916.686,VALID,0,VALID,84.8639,VALID,134.194,VALID,20.4244,VALID,143,VALID,0,
2013-11-18, 07:24:04,VALID,916.676,VALID,0,VALID,85.9464,VALID,135.698,VALID,20.4439,VALID,143,VALID,0,
2013-11-18, 07:25:04,VALID,916.696,VALID,0,VALID,86.1598,VALID,137.202,VALID,20.4439,VALID,143,VALID,0,
2013-11-18, 07:26:04,VALID,916.732,VALID,0,VALID,87.4253,VALID,138.599,VALID,20.4634,VALID,143,VALID,0,
2013-11-18, 07:27:04,VALID,916.739,VALID,0,VALID,88.5384,VALID,139.459,VALID,20.543,VALID,143,VALID,0,
2013-11-18, 07:28:04,VALID,916.78,VALID,0,VALID,88.3401,VALID,139.996,VALID,20.6015,VALID,143,VALID,0,
2013-11-18, 07:29:04,VALID,916.772,VALID,0,VALID,88.0123,VALID,140.211,VALID,20.6194,VALID,143,VALID,0,
2013-11-18, 07:30:04,VALID,916.788,VALID,0,VALID,88.2182,VALID,140.318,VALID,20.6179,VALID,143,VALID,0,
2013-11-18, 07:31:04,VALID,916.827,VALID,0,VALID,88.8128,VALID,140.318,VALID,20.6374,VALID,142,VALID,0,
2013-11-18, 07:32:04,VALID,916.828,VALID,0,VALID,87.5321,VALID,140.318,VALID,20.621,VALID,94,VALID,0,
2013-11-18, 07:33:04,VALID,916.82,VALID,0,VALID,86.3428,VALID,141.285,VALID,20.5609,VALID,93,VALID,0,
2013-11-18, 07:34:04,VALID,916.827,VALID,0,VALID,85.8168,VALID,143.004,VALID,20.5024,VALID,93,VALID,0,
2013-11-18, 07:35:04,VALID,916.854,VALID,0,VALID,87.0899,VALID,145.368,VALID,20.4829,VALID,94,VALID,0,
2013-11-18, 07:36:04,VALID,916.826,VALID,0,VALID,87.189,VALID,148.699,VALID,20.4244,VALID,93,VALID,0,
2013-11-18, 07:37:04,VALID,916.848,VALID,0,VALID,86.3733,VALID,152.352,VALID,20.3854,VALID,93,VALID,0,
2013-11-18, 07:38:04,VALID,916.872,VALID,0,VALID,88.6375,VALID,155.575,VALID,20.4033,VALID,94,VALID,0,
2013-11-18, 07:39:04,VALID,916.879,VALID,0,VALID,88.828,VALID,158.261,VALID,20.3838,VALID,93,VALID,0,
2013-11-18, 07:40:04,VALID,916.93,VALID,0,VALID,90.0021,VALID,159.98,VALID,20.4033,VALID,93,VALID,0,
2013-11-18, 07:41:04,VALID,916.919,VALID,0,VALID,90.0249,VALID,160.41,VALID,20.4634,VALID,1,VALID,0,
2013-11-18, 07:42:04,VALID,916.95,VALID,0,VALID,90.711,VALID,160.087,VALID,20.5024,VALID,9,VALID,0,
2013-11-18, 07:43:04,VALID,916.94,VALID,0,VALID,91.3666,VALID,158.691,VALID,20.5609,VALID,358,VALID,0,
2013-11-18, 07:44:04,VALID,916.965,VALID,0,VALID,91.077,VALID,157.401,VALID,20.5219,VALID,17,VALID,0,
2013-11-18, 07:45:04,VALID,917.013,VALID,0,VALID,90.8864,VALID,158.046,VALID,20.4439,VALID,3,VALID,0,
2013-11-18, 07:46:04,VALID,916.989,VALID,0,VALID,90.8178,VALID,163.096,VALID,20.3659,VALID,345,VALID,0,
2013-11-18, 07:47:04,VALID,917.023,VALID,0,VALID,90.9931,VALID,172.013,VALID,20.2863,VALID,347,VALID,0,
2013-11-18, 07:48:04,VALID,916.987,VALID,0,VALID,91.2752,VALID,171.261,VALID,20.3058,VALID,8,VALID,0,
2013-11-18, 07:49:04,VALID,917.018,VALID,0,VALID,91.6106,VALID,175.022,VALID,20.3074,VALID,358,VALID,0,
2013-11-18, 07:50:04,VALID,917.061,VALID,0,VALID,91.7707,VALID,179.534,VALID,20.3464,VALID,358,VALID,0,
2013-11-18, 07:51:04,VALID,917.049,VALID,0,VALID,91.5039,VALID,184.906,VALID,20.3464,VALID,358,VALID,0,
2013-11-18, 07:52:04,VALID,917.102,VALID,0,VALID,91.3133,VALID,190.815,VALID,20.3659,VALID,358,VALID,0,
2013-11-18, 07:53:04,VALID,917.098,VALID,0,VALID,91.298,VALID,198.014,VALID,20.4033,VALID,358,VALID,0,
2013-11-18, 07:54:04,VALID,917.078,VALID,0,VALID,91.4581,VALID,207.899,VALID,20.5414,VALID,358,VALID,0,
2013-11-18, 07:55:04,VALID,917.115,VALID,0,VALID,89.072,VALID,229.709,VALID,20.5399,VALID,348,VALID,0,
2013-11-18, 07:56:04,VALID,917.133,VALID,0,VALID,88.1648,VALID,241.205,VALID,20.6194,VALID,348,VALID,0,
2013-11-18, 07:57:04,VALID,917.116,VALID,0,VALID,87.7226,VALID,221.221,VALID,20.6959,VALID,348,VALID,0,
2013-11-18, 07:58:04,VALID,917.152,VALID,0,VALID,87.6388,VALID,218.535,VALID,20.7739,VALID,348,VALID,0,
2013-11-18, 07:59:04,VALID,917.137,VALID,0,VALID,88.1877,VALID,221.866,VALID,20.8129,VALID,302,VALID,0,
2013-11-18, 08:00:04,VALID,917.143,VALID,0,VALID,88.6984,VALID,236.8,VALID,20.7934,VALID,302,VALID,0,
2013-11-18, 08:01:04,VALID,917.163,VALID,0,VALID,88.8967,VALID,241.205,VALID,20.7934,VALID,302,VALID,0,
2013-11-18, 08:02:04,VALID,917.172,VALID,0,VALID,88.3249,VALID,237.445,VALID,20.7544,VALID,302,VALID,0,
2013-11-18, 08:03:04,VALID,917.181,VALID,0,VALID,88.1648,VALID,234.437,VALID,20.795,VALID,301,VALID,0,
2013-11-18, 08:04:04,VALID,917.199,VALID,0,VALID,87.9818,VALID,245.503,VALID,20.8535,VALID,302,VALID,0,
2013-11-18, 08:05:04,VALID,917.23,VALID,0,VALID,88.1572,VALID,239.164,VALID,20.93,VALID,302,VALID,0,
2013-11-18, 08:06:04,VALID,917.249,VALID,0,VALID,84.8334,VALID,232.932,VALID,20.9495,VALID,302,VALID,0,
2013-11-18, 08:07:04,VALID,917.266,VALID,0,VALID,83.6746,VALID,231.106,VALID,20.9885,VALID,302,VALID,0,
2013-11-18, 08:08:04,VALID,917.28,VALID,0,VALID,85.9464,VALID,235.296,VALID,20.9885,VALID,306,VALID,0,
2013-11-18, 08:09:04,VALID,917.331,VALID,0,VALID,86.8764,VALID,238.304,VALID,20.969,VALID,309,VALID,0,
2013-11-18, 08:10:04,VALID,917.304,VALID,0,VALID,87.6845,VALID,243.677,VALID,21.008,VALID,310,VALID,0,
2013-11-18, 08:11:04,VALID,917.34,VALID,0,VALID,87.9895,VALID,241.205,VALID,21.0665,VALID,313,VALID,0,
2013-11-18, 08:12:04,VALID,917.318,VALID,0,VALID,85.2527,VALID,240.776,VALID,21.0665,VALID,309,VALID,0,
2013-11-18, 08:13:04,VALID,917.333,VALID,0,VALID,86.4419,VALID,243.247,VALID,21.125,VALID,345,VALID,0,
2013-11-18, 08:14:04,VALID,917.368,VALID,0,VALID,85.367,VALID,248.619,VALID,21.125,VALID,330,VALID,0,
2013-11-18, 08:15:04,VALID,917.379,VALID,0,VALID,84.4979,VALID,253.131,VALID,21.1445,VALID,297,VALID,0,
2013-11-18, 08:16:04,VALID,917.399,VALID,0,VALID,83.5984,VALID,247.007,VALID,21.1055,VALID,296,VALID,0,
2013-11-18, 08:17:04,VALID,917.381,VALID,0,VALID,85.5195,VALID,247.437,VALID,21.0844,VALID,297,VALID,0,
2013-11-18, 08:18:04,VALID,917.438,VALID,0,VALID,85.0773,VALID,250.66,VALID,21.1429,VALID,1,VALID,0,
2013-11-18, 08:19:04,VALID,917.419,VALID,0,VALID,82.028,VALID,266.669,VALID,21.2015,VALID,325,VALID,0,
2013-11-18, 08:20:04,VALID,917.441,VALID,0,VALID,82.0127,VALID,271.934,VALID,21.2811,VALID,285,VALID,0,
2013-11-18, 08:21:04,VALID,917.443,VALID,0,VALID,80.671,VALID,276.768,VALID,21.3608,VALID,295,VALID,0,
2013-11-18, 08:22:04,VALID,917.449,VALID,0,VALID,81.0369,VALID,283.752,VALID,21.3803,VALID,296,VALID,0,
2013-11-18, 08:23:04,VALID,917.474,VALID,0,VALID,81.4714,VALID,281.281,VALID,21.3412,VALID,291,VALID,0,
2013-11-18, 08:24:04,VALID,917.518,VALID,0,VALID,82.9809,VALID,286.008,VALID,21.3201,VALID,291,VALID,0,
2013-11-18, 08:25:04,VALID,917.546,VALID,0,VALID,81.7688,VALID,309.001,VALID,21.3786,VALID,325,VALID,0,
2013-11-18, 08:26:04,VALID,917.526,VALID,0,VALID,82.1804,VALID,320.39,VALID,21.4372,VALID,317,VALID,0,
2013-11-18, 08:27:04,VALID,917.525,VALID,0,VALID,83.0342,VALID,287.513,VALID,21.4957,VALID,313,VALID,0,
2013-11-18, 08:28:04,VALID,917.555,VALID,0,VALID,82.958,VALID,312.224,VALID,21.5542,VALID,298,VALID,0,
2013-11-18, 08:29:04,VALID,917.609,VALID,0,VALID,80.206,VALID,303.091,VALID,21.5754,VALID,305,VALID,0,
2013-11-18, 08:30:04,VALID,917.595,VALID,0,VALID,80.5566,VALID,312.331,VALID,21.5932,VALID,308,VALID,0,
2013-11-18, 08:31:04,VALID,917.613,VALID,0,VALID,82.7522,VALID,325.009,VALID,21.6713,VALID,279,VALID,0,
2013-11-18, 08:32:04,VALID,917.651,VALID,0,VALID,82.188,VALID,490.469,VALID,21.7688,INVALID,360,VALID,0,
2013-11-18, 08:33:04,VALID,917.636,VALID,0,VALID,82.3024,VALID,396.35,VALID,21.8664,VALID,268,VALID,0,
2013-11-18, 08:34:05,VALID,917.696,VALID,0,VALID,81.1741,VALID,372.928,VALID,21.9249,VALID,283,VALID,0,
2013-11-18, 08:35:05,VALID,917.697,VALID,0,VALID,81.2351,VALID,403.442,VALID,21.9054,VALID,302,VALID,0,
2013-11-18, 08:36:05,VALID,917.726,VALID,0,VALID,81.8907,VALID,414.615,VALID,21.8859,VALID,298,VALID,0,
2013-11-18, 08:37:05,VALID,917.721,VALID,0,VALID,81.5096,VALID,454.261,VALID,22.003,VALID,352,VALID,0,
2013-11-18, 08:38:05,VALID,917.703,VALID,0,VALID,80.2974,VALID,584.695,VALID,22.1981,VALID,333,VALID,0,
2013-11-18, 08:39:05,VALID,917.732,VALID,0,VALID,77.6064,VALID,450.286,VALID,22.2957,VALID,314,VALID,0,
2013-11-18, 08:40:05,VALID,917.727,VALID,0,VALID,77.4539,VALID,464.468,VALID,22.3933,VALID,303,VALID,0,
2013-11-18, 08:41:05,VALID,917.741,VALID,0,VALID,78.1934,VALID,408.169,VALID,22.4501,VALID,313,VALID,0,
2013-11-18, 08:42:05,VALID,917.78,VALID,0,VALID,75.8759,VALID,459.956,VALID,22.4501,VALID,282,VALID,0,
2013-11-18, 08:43:05,VALID,917.767,VALID,0,VALID,77.149,VALID,439.972,VALID,22.4891,VALID,262,VALID,0,
2013-11-18, 08:44:05,VALID,917.779,VALID,0,VALID,76.0436,VALID,371.317,VALID,22.6079,VALID,305,VALID,0,
2013-11-18, 08:45:05,VALID,917.777,VALID,0,VALID,78.9786,VALID,348.324,VALID,22.7836,VALID,305,VALID,0,
2013-11-18, 08:46:05,VALID,917.819,VALID,0,VALID,76.2342,VALID,379.267,VALID,22.9185,VALID,304,VALID,0,
2013-11-18, 08:47:05,VALID,917.818,VALID,0,VALID,77.2023,VALID,304.381,VALID,23.016,VALID,343,VALID,0,
2013-11-18, 08:48:05,VALID,917.83,VALID,0,VALID,76.0893,VALID,388.185,VALID,23.0746,VALID,334,VALID,0,
2013-11-18, 08:49:05,VALID,917.846,VALID,0,VALID,78.079,VALID,275.909,VALID,23.1899,VALID,352,VALID,0,
2013-11-18, 08:50:05,VALID,917.84,VALID,0,VALID,77.2252,VALID,263.016,VALID,23.2893,VALID,23,VALID,0,
2013-11-18, 08:51:05,VALID,917.848,VALID,0,VALID,77.0041,VALID,243.784,VALID,23.2307,VALID,354,VALID,0,
2013-11-18, 08:52:05,VALID,917.881,VALID,0,VALID,75.67,VALID,241.313,VALID,23.1527,VALID,8,VALID,0,
2013-11-18, 08:53:05,VALID,917.868,VALID,0,VALID,75.0373,VALID,240.024,VALID,22.9753,VALID,8,VALID,0,
2013-11-18, 08:54:05,VALID,917.864,VALID,0,VALID,77.4234,VALID,225.197,VALID,22.7818,VALID,33,VALID,0,
2013-11-18, 08:55:05,VALID,917.879,VALID,0,VALID,76.7449,VALID,216.279,VALID,22.7038,VALID,23,VALID,0,
2013-11-18, 08:56:05,VALID,917.877,VALID,0,VALID,75.3041,VALID,214.882,VALID,22.6452,VALID,311,VALID,0,
2013-11-18, 08:57:05,VALID,917.859,VALID,0,VALID,77.3624,VALID,209.833,VALID,22.5867,VALID,34,VALID,0,
2013-11-18, 08:58:05,VALID,917.868,VALID,0,VALID,77.6826,VALID,212.304,VALID,22.6062,VALID,33,VALID,0,
2013-11-18, 08:59:05,VALID,917.863,VALID,0,VALID,78.5669,VALID,266.884,VALID,22.6062,VALID,14,VALID,0,
2013-11-18, 09:00:05,VALID,917.86,VALID,0,VALID,76.9813,VALID,298.472,VALID,22.6452,VALID,336,VALID,0,
2013-11-18, 09:01:05,VALID,917.864,VALID,0,VALID,77.2938,VALID,262.049,VALID,22.7233,VALID,24,VALID,0,
2013-11-18, 09:02:05,VALID,917.866,VALID,0,VALID,77.3472,VALID,251.197,VALID,22.7818,VALID,5,VALID,0,
2013-11-18, 09:03:05,VALID,917.871,VALID,0,VALID,76.4476,VALID,285.149,VALID,22.8989,VALID,12,VALID,0,
2013-11-18, 09:04:05,VALID,917.895,VALID,0,VALID,76.1808,VALID,368.308,VALID,23.0338,VALID,17,VALID,0,
2013-11-18, 09:05:05,VALID,917.886,VALID,0,VALID,75.8225,VALID,503.899,VALID,23.0746,VALID,133,VALID,0,
2013-11-18, 09:06:05,VALID,917.877,VALID,0,VALID,76.1579,VALID,723.401,VALID,23.2502,VALID,63,VALID,0,
2013-11-18, 09:07:05,VALID,917.844,VALID,0,VALID,73.4516,VALID,742.633,VALID,23.5235,INVALID,360,VALID,0,
2013-11-18, 09:08:05,VALID,917.874,VALID,0,VALID,74.4808,VALID,674.838,VALID,23.8163,VALID,20,VALID,0,
2013-11-18, 09:09:05,VALID,917.901,VALID,0,VALID,70.6005,VALID,721.038,VALID,24.0115,VALID,277,VALID,0,
2013-11-18, 09:10:05,VALID,917.856,VALID,0,VALID,70.9511,VALID,760.146,VALID,24.0115,VALID,339,VALID,0,
2013-11-18, 09:11:05,VALID,917.876,VALID,0,VALID,69.7238,VALID,632.721,VALID,24.1464,VALID,335,VALID,0,
2013-11-18, 09:12:05,VALID,917.857,VALID,0,VALID,69.9067,VALID,678.598,VALID,24.0097,VALID,348,VALID,0,
2013-11-18, 09:13:05,VALID,917.859,VALID,0,VALID,70.3794,VALID,534.305,VALID,23.8749,VALID,20,VALID,0,
2013-11-18, 09:14:05,VALID,917.834,VALID,0,VALID,70.448,VALID,721.897,VALID,23.8944,VALID,351,VALID,0,
2013-11-18, 09:15:05,VALID,917.817,VALID,0,VALID,69.7924,VALID,768.527,VALID,23.7968,VALID,38,VALID,0,
2013-11-18, 09:16:05,VALID,917.823,VALID,0,VALID,70.5471,VALID,832.132,VALID,23.953,VALID,7,VALID,0,
2013-11-18, 09:17:05,VALID,917.805,VALID,0,VALID,68.3592,VALID,640.886,VALID,24.2245,VALID,1,VALID,0,
2013-11-18, 09:18:05,VALID,917.82,VALID,0,VALID,68.7327,VALID,713.302,VALID,24.3806,VALID,10,VALID,0,
2013-11-18, 09:19:05,VALID,917.813,VALID,0,VALID,67.4291,VALID,590.926,VALID,24.4783,VALID,345,VALID,0,
2013-11-18, 09:20:05,VALID,917.821,VALID,0,VALID,67.8408,VALID,639.49,VALID,24.4587,VALID,27,VALID,0,
2013-11-18, 09:21:05,VALID,917.822,VALID,0,VALID,65.9883,VALID,676.987,VALID,24.5368,VALID,3,VALID,0,
2013-11-18, 09:22:05,VALID,917.795,VALID,0,VALID,66.5524,VALID,637.233,VALID,24.5973,VALID,351,VALID,0,
2013-11-18, 09:23:05,VALID,917.799,VALID,0,VALID,67.7569,VALID,530.33,VALID,24.5582,VALID,8,VALID,0,
2013-11-18, 09:24:05,VALID,917.807,VALID,0,VALID,67.2004,VALID,522.271,VALID,24.5973,VALID,8,VALID,0,
2013-11-18, 09:25:05,VALID,917.837,VALID,0,VALID,68.0542,VALID,452.757,VALID,24.6168,VALID,12,VALID,0,
2013-11-18, 09:26:05,VALID,917.849,VALID,0,VALID,65.6529,VALID,527.751,VALID,24.6559,VALID,12,VALID,0,
2013-11-18, 09:27:05,VALID,917.854,VALID,0,VALID,68.4735,VALID,474.675,VALID,24.6949,VALID,12,VALID,0,
2013-11-18, 09:28:05,VALID,917.861,VALID,0,VALID,64.2349,VALID,433.31,VALID,24.6754,VALID,317,VALID,0,
2013-11-18, 09:29:05,VALID,917.832,VALID,0,VALID,67.513,VALID,389.689,VALID,24.4997,VALID,24,VALID,0,
2013-11-18, 09:30:05,VALID,917.879,VALID,0,VALID,68.6184,VALID,425.145,VALID,24.3825,VALID,23,VALID,0,
2013-11-18, 09:31:05,VALID,917.886,VALID,0,VALID,68.9462,VALID,428.905,VALID,24.3806,VALID,21,VALID,0,
2013-11-18, 09:32:05,VALID,917.902,VALID,0,VALID,68.4888,VALID,466.724,VALID,24.5387,VALID,21,VALID,0,
2013-11-18, 09:33:05,VALID,917.918,VALID,0,VALID,65.1726,VALID,458.237,VALID,24.6949,VALID,319,VALID,0,
2013-11-18, 09:34:05,VALID,917.894,VALID,0,VALID,66.6439,VALID,476.931,VALID,24.6363,VALID,294,VALID,0,
2013-11-18, 09:35:05,VALID,917.896,VALID,0,VALID,68.9767,VALID,519.693,VALID,24.7926,VALID,340,VALID,0,
2013-11-18, 09:36:05,VALID,917.913,VALID,0,VALID,66.3161,VALID,625.952,VALID,24.9078,VALID,293,VALID,0,
2013-11-18, 09:37:05,VALID,917.905,VALID,0,VALID,66.1331,VALID,554.826,VALID,24.8492,VALID,300,VALID,0,
2013-11-18, 09:38:05,VALID,917.914,VALID,0,VALID,67.1318,VALID,549.991,VALID,24.7907,VALID,357,VALID,0,
2013-11-18, 09:39:05,VALID,917.94,VALID,0,VALID,66.0035,VALID,485.634,VALID,24.7321,VALID,309,VALID,0,
2013-11-18, 09:40:05,VALID,917.931,VALID,0,VALID,67.6654,VALID,449.211,VALID,24.654,VALID,293,VALID,0,
2013-11-18, 09:41:05,VALID,917.965,VALID,0,VALID,67.2766,VALID,452.542,VALID,24.654,VALID,293,VALID,0,
2013-11-18, 09:42:05,VALID,917.944,VALID,0,VALID,67.4825,VALID,428.475,VALID,24.6168,VALID,293,VALID,0,
2013-11-18, 09:43:05,VALID,917.972,VALID,0,VALID,67.7798,VALID,414.83,VALID,24.5192,VALID,293,VALID,0,
2013-11-18, 09:44:05,VALID,917.967,VALID,0,VALID,67.574,VALID,408.706,VALID,24.3806,VALID,293,VALID,0,
2013-11-18, 09:45:05,VALID,917.994,VALID,0,VALID,68.2829,VALID,406.987,VALID,24.4587,VALID,293,VALID,0,
2013-11-18, 09:46:05,VALID,917.957,VALID,0,VALID,67.8636,VALID,402.367,VALID,24.5368,VALID,293,VALID,0,
2013-11-18, 09:47:05,VALID,917.995,VALID,0,VALID,67.795,VALID,404.516,VALID,24.5368,VALID,293,VALID,0,
2013-11-18, 09:48:05,VALID,917.944,VALID,0,VALID,68.1762,VALID,401.722,VALID,24.4978,VALID,318,VALID,0,
2013-11-18, 09:49:05,VALID,917.976,VALID,0,VALID,69.3121,VALID,389.797,VALID,24.5954,VALID,23,VALID,0,
2013-11-18, 09:50:05,VALID,917.974,VALID,0,VALID,68.039,VALID,385.284,VALID,24.693,VALID,42,VALID,0,
2013-11-18, 09:51:05,VALID,917.956,VALID,0,VALID,70.1126,VALID,385.821,VALID,24.8688,VALID,34,VALID,0,
2013-11-18, 09:52:05,VALID,917.954,VALID,0,VALID,67.9018,VALID,380.449,VALID,25.064,VALID,351,VALID,0,
2013-11-18, 09:53:05,VALID,917.978,VALID,0,VALID,66.3085,VALID,381.309,VALID,24.9664,VALID,314,VALID,0,
2013-11-18, 09:54:05,VALID,917.963,VALID,0,VALID,67.3529,VALID,386.036,VALID,24.9469,VALID,352,VALID,0,
2013-11-18, 09:55:05,VALID,917.987,VALID,0,VALID,66.3085,VALID,391.408,VALID,24.8864,VALID,300,VALID,0,
2013-11-18, 09:56:05,VALID,917.988,VALID,0,VALID,66.743,VALID,391.516,VALID,24.7711,VALID,300,VALID,0,
2013-11-18, 09:57:05,VALID,917.953,VALID,0,VALID,70.4327,VALID,422.136,VALID,24.6735,VALID,354,VALID,0,
2013-11-18, 09:58:05,VALID,917.938,VALID,0,VALID,69.3883,VALID,389.904,VALID,24.8102,VALID,37,VALID,0,
2013-11-18, 09:59:05,VALID,917.926,VALID,0,VALID,70.2498,VALID,477.576,VALID,24.8492,VALID,6,VALID,0,
2013-11-18, 10:00:05,VALID,917.912,VALID,0,VALID,69.7543,VALID,455.55,VALID,24.7516,VALID,32,VALID,0,
2013-11-18, 10:01:05,VALID,917.909,VALID,0,VALID,69.5256,VALID,461.89,VALID,24.693,VALID,23,VALID,0,
2013-11-18, 10:02:05,VALID,917.894,VALID,0,VALID,69.396,VALID,563.959,VALID,24.7888,VALID,34,VALID,0,
2013-11-18, 10:03:05,VALID,917.9,VALID,0,VALID,66.0035,VALID,596.191,VALID,24.8492,VALID,286,VALID,0,
2013-11-18, 10:04:05,VALID,917.878,VALID,0,VALID,68.748,VALID,538.388,VALID,24.7126,VALID,287,VALID,0,
2013-11-18, 10:05:05,VALID,917.893,VALID,0,VALID,67.5282,VALID,677.202,VALID,24.8474,VALID,282,VALID,0,
2013-11-18, 10:06:05,VALID,917.872,VALID,0,VALID,66.6134,VALID,739.625,VALID,24.7888,VALID,284,VALID,0,
2013-11-18, 10:07:05,VALID,917.889,VALID,0,VALID,68.1,VALID,627.564,VALID,24.7321,VALID,290,VALID,0,
2013-11-18, 10:08:05,VALID,917.864,VALID,0,VALID,68.0314,VALID,612.307,VALID,24.7497,VALID,230,VALID,0,
2013-11-18, 10:09:05,VALID,917.873,VALID,0,VALID,68.3439,VALID,820.85,VALID,24.7321,VALID,246,VALID,0,
2013-11-18, 10:10:05,VALID,917.876,VALID,0,VALID,68.1762,VALID,827.404,VALID,24.7693,VALID,245,VALID,0,
2013-11-18, 10:11:05,VALID,917.901,VALID,0,VALID,69.6552,VALID,757.138,VALID,24.8669,VALID,246,VALID,0,
2013-11-18, 10:12:05,VALID,917.882,VALID,0,VALID,67.1623,VALID,679.888,VALID,25.0426,VALID,247,VALID,0,
2013-11-18, 10:13:05,VALID,917.903,VALID,0,VALID,65.4775,VALID,632.506,VALID,24.984,VALID,257,VALID,0,
2013-11-18, 10:14:05,VALID,917.918,VALID,0,VALID,67.6731,VALID,624.555,VALID,24.9645,VALID,251,VALID,0,
2013-11-18, 10:15:05,VALID,917.909,VALID,0,VALID,67.3453,VALID,618.861,VALID,25.1402,VALID,310,VALID,0,
2013-11-18, 10:16:05,VALID,917.905,VALID,0,VALID,66.1636,VALID,906.159,VALID,25.355,VALID,22,VALID,0,
2013-11-18, 10:17:05,VALID,917.907,VALID,0,VALID,65.8892,VALID,938.069,VALID,25.4741,VALID,12,VALID,0,
2013-11-18, 10:18:05,VALID,917.885,VALID,0,VALID,66.5982,VALID,859.852,VALID,25.5718,VALID,22,VALID,0,
2013-11-18, 10:19:05,VALID,917.883,VALID,0,VALID,65.0887,VALID,802.908,VALID,25.8472,VALID,29,VALID,0,
2013-11-18, 10:20:05,VALID,917.881,VALID,0,VALID,65.813,VALID,661.408,VALID,25.8843,VALID,31,VALID,0,
2013-11-18, 10:21:05,VALID,917.878,VALID,0,VALID,64.5703,VALID,807.42,VALID,25.982,VALID,17,VALID,0,
2013-11-18, 10:22:05,VALID,917.849,VALID,0,VALID,64.8981,VALID,955.044,VALID,26.021,VALID,10,VALID,0,
2013-11-18, 10:23:05,VALID,917.854,VALID,0,VALID,65.1802,VALID,664.631,VALID,26.0796,VALID,21,VALID,0,
2013-11-18, 10:24:05,VALID,917.872,VALID,0,VALID,65.7062,VALID,653.457,VALID,25.9234,VALID,15,VALID,0,
2013-11-18, 10:25:05,VALID,917.821,VALID,0,VALID,66.9488,VALID,623.696,VALID,25.6499,VALID,14,VALID,0,
2013-11-18, 10:26:05,VALID,917.84,VALID,0,VALID,66.9412,VALID,730.17,VALID,25.4722,VALID,341,VALID,0,
2013-11-18, 10:27:05,VALID,917.788,VALID,0,VALID,67.2309,VALID,680.747,VALID,25.4937,VALID,5,VALID,0,
2013-11-18, 10:28:05,VALID,917.789,VALID,0,VALID,68.9157,VALID,692.781,VALID,25.5132,VALID,356,VALID,0,
2013-11-18, 10:29:05,VALID,917.764,VALID,0,VALID,68.2296,VALID,691.921,VALID,25.6109,VALID,33,VALID,0,
2013-11-18, 10:30:05,VALID,917.721,VALID,0,VALID,64.4484,VALID,748.542,VALID,25.7085,VALID,19,VALID,0,